Wind_Speed
116 107 102 93 95 98 97 97 96 90 84 78 76 78 61 57 49 47 56 61 46 46 42 48 44 41 41 37 33 33 31 38 45 45 42 43 43 49 47 49 46 49 49 54
116 112 105 100 98 95 97 100 99 97 93 87 82 79 75 60 49 46 53 59 54 47 45 47 44 41 46 44 42 41 43 46 47 46 52 51 48 49 49 50 52 52 54 57
109 116 113 104 100 92 92 96 98 99 96 93 90 88 84 71 54 52 55 45 47 49 48 52 48 44 43 44 43 49 44 47 51 49 50 50 50 49 52 54 56 55 58 58
115 118 115 110 100 99 99 95 98 100 100 96 93 86 83 81 67 59 67 56 50 52 52 57 52 53 56 52 55 51 51 49 48 49 52 53 53 54 57 57 58 58 59 62
117 115 117 112 107 100 96 100 100 102 102 101 97 91 84 83 87 78 65 67 61 55 57 58 57 52 54 56 57 57 56 52 52 53 57 55 54 56 58 61 61 63 64 67
117 117 119 115 111 105 97 100 100 97 100 99 96 95 90 75 73 79 80 74 70 63 63 62 61 59 59 58 62 59 54 52 56 58 60 64 62 63 66 68 68 66 69 77
116 119 119 117 114 111 103 106 103 99 99 92 92 91 84 85 84 83 85 86 84 78 65 70 70 66 57 61 65 62 59 57 55 62 67 68 70 70 73 72 72 76 80 82
114 117 113 116 116 107 108 100 103 102 95 92 95 92 82 86 87 90 86 86 83 79 76 76 80 71 69 66 71 70 69 68 63 66 67 71 72 72 76 77 80 82 87 90
112 115 114 112 118 113 108 102 98 102 103 98 95 88 86 90 89 83 84 86 84 81 84 83 82 84 78 82 79 80 79 77 77 78 77 79 78 78 79 79 84 89 93 94
110 115 116 116 120 117 112 105 107 110 107 100 96 91 88 89 92 92 95 94 92 85 84 83 87 85 83 89 87 83 84 82 83 84 85 82 83 82 82 87 93 95 97 99
110 113 114 116 119 117 116 110 105 99 91 94 94 91 91 95 95 94 98 97 91 92 91 90 91 87 92 91 87 85 86 89 93 92 89 88 84 89 97 99 99 99 100 104
103 108 112 114 115 124 120 114 114 111 96 89 95 90 88 89 93 94 96 95 94 92 95 91 93 92 95 91 90 92 92 99 97 96 90 93 97 98 102 102 105 104 106 107
101 104 107 113 114 121 124 121 121 110 107 99 88 90 94 92 90 92 92 92 96 97 95 94 94 94 96 97 97 98 102 97 96 95 101 104 104 106 106 107 110 111 110 111
98 100 102 106 104 114 121 121 127 117 118 107 89 80 91 98 96 96 97 99 101 100 100 95 94 97 98 98 97 99 99 102 108 110 109 107 108 109 113 115 114 112 112 113
95 93 98 100 105 111 115 121 128 122 109 108 108 100 89 94 101 104 102 100 101 101 102 101 101 101 100 101 102 107 109 110 109 108 110 109 112 117 117 115 112 114 115 115
93 93 92 98 100 105 114 114 118 114 116 112 110 113 103 93 100 97 98 101 103 103 104 108 106 106 107 109 112 114 112 110 110 110 114 117 118 119 112 115 117 117 118 118
88 90 91 93 98 103 111 105 107 109 113 111 111 105 104 102 103 104 110 113 111 113 110 112 112 112 114 120 120 115 114 114 115 115 116 118 116 116 118 118 118 120 120 121
88 89 90 91 96 104 93 100 107 110 105 108 111 109 112 107 104 105 103 106 111 113 112 113 114 116 118 118 118 114 114 115 118 117 115 115 117 117 117 119 121 121 120 122
79 84 88 93 93 88 92 91 96 104 104 106 102 105 106 111 115 103 96 102 103 104 104 107 109 111 111 111 111 111 111 111 114 115 114 114 116 118 118 120 121 123 124 125
76 82 90 91 94 91 84 88 89 97 97 96 101 104 109 108 105 96 104 99 96 100 103 106 110 113 112 111 109 109 112 111 113 114 116 117 119 121 121 123 127 128 127 127
74 77 81 84 85 86 84 86 91 92 84 96 103 110 111 108 105 98 101 103 100 97 99 102 105 106 106 107 109 110 113 115 116 117 120 122 124 125 126 125 124 125 127 128
74 74 74 73 76 77 77 81 83 85 87 92 94 99 104 104 100 98 98 99 102 102 104 105 106 108 108 111 111 112 115 116 118 121 122 124 125 126 126 127 128 128 129 132
74 75 75 74 69 71 76 80 82 84 87 89 91 96 99 97 98 99 99 103 106 105 104 105 105 106 107 109 110 112 115 117 119 121 121 124 126 126 126 127 130 132 134 137
77 78 80 78 77 77 80 82 82 83 84 85 86 87 88 90 91 93 94 98 102 104 105 106 107 108 109 110 112 113 112 114 116 118 121 123 125 127 128 128 132 135 139 141
77 78 77 79 81 82 82 84 87 87 86 86 87 89 91 91 91 92 94 96 98 99 101 102 103 105 107 109 111 113 115 118 120 122 125 129 132 134 135 134 135 137 141 141
79 77 77 78 82 85 87 89 89 89 90 90 91 93 95 97 98 100 101 103 104 105 106 108 110 111 113 114 116 118 119 120 123 125 124 123 126 127 131 133 132 137 138 140
Wind_Direction
219 214 216 213 218 221 226 228 230 227 225 228 227 231 224 236 246 238 236 239 257 259 254 264 266 260 266 269 281 287 289 296 299 298 299 304 306 311 313 317 315 320 320 326
218 218 215 213 215 218 224 228 230 232 231 232 231 230 227 236 238 238 245 251 248 248 251 255 251 260 267 264 274 279 288 292 294 292 296 300 301 304 307 311 310 312 313 319
219 221 216 214 215 216 219 224 229 229 231 233 234 233 234 234 235 230 241 249 250 247 248 253 259 264 266 269 276 280 283 289 292 292 297 297 297 300 303 303 306 309 311 310
219 219 217 214 215 217 219 223 228 231 232 233 235 237 237 237 240 233 240 247 252 249 252 256 255 259 264 270 275 275 277 282 284 282 293 294 295 297 297 298 300 302 307 310
218 219 219 213 214 215 216 224 227 227 230 231 237 238 240 243 242 243 240 241 249 250 254 251 253 262 268 273 276 277 276 279 283 282 286 289 289 291 293 295 297 299 303 307
217 220 220 215 214 214 215 223 226 230 237 233 234 237 242 240 234 236 239 244 250 254 252 252 260 262 270 272 273 271 272 278 281 284 286 289 286 288 291 291 293 299 301 304
217 220 219 218 213 211 217 219 226 229 232 234 235 239 241 245 242 238 242 250 253 248 245 251 256 260 265 269 269 270 271 277 279 282 284 287 287 287 292 290 291 295 297 301
217 218 220 219 214 214 216 221 225 228 227 229 236 242 241 242 241 242 245 243 248 252 249 250 254 260 261 264 269 269 271 273 275 279 280 283 286 286 288 289 291 292 295 299
216 219 219 217 217 214 215 221 221 227 228 229 234 232 234 237 235 239 245 246 249 251 253 255 255 261 259 268 271 271 272 273 275 278 285 284 283 283 285 285 289 290 294 296
214 217 219 219 216 215 215 218 222 229 231 233 236 234 234 233 238 245 249 246 248 250 251 253 258 257 261 268 270 268 269 269 276 281 285 284 282 283 283 286 290 290 292 296
216 218 219 220 216 215 217 219 223 223 230 232 231 230 236 233 240 244 244 245 248 254 255 256 257 260 266 268 266 266 267 271 276 278 282 283 282 283 286 287 291 292 295 297
219 220 220 221 219 216 215 220 222 224 226 230 230 232 234 239 239 240 242 246 254 251 254 255 257 263 262 263 268 270 270 272 275 278 281 282 282 283 286 289 291 292 293 296
220 221 221 221 220 218 219 222 226 228 226 228 236 234 233 235 238 240 244 247 252 254 253 254 258 262 259 262 264 270 273 273 276 278 279 281 280 283 286 287 290 291 292 295
222 223 224 222 221 223 223 225 226 227 227 228 232 235 236 237 239 241 244 250 251 250 257 256 259 261 261 263 265 267 269 274 278 278 277 278 280 284 287 288 289 292 293 293
224 225 225 224 222 223 224 229 226 229 225 230 231 233 236 235 237 242 245 246 247 249 252 256 259 258 259 261 265 272 273 274 274 275 276 279 283 286 288 288 289 290 291 291
227 227 228 227 227 226 226 229 231 231 228 231 231 235 240 237 237 242 243 245 247 248 252 256 257 259 262 265 266 271 271 271 273 277 279 281 284 286 285 286 287 288 290 290
228 228 230 228 230 229 229 234 235 234 234 234 231 238 241 244 246 244 243 243 247 250 252 255 257 259 263 265 268 269 269 271 275 279 280 282 282 283 284 285 286 288 288 289
226 229 231 232 230 231 231 235 235 235 237 237 238 240 242 244 246 247 247 250 251 253 256 258 261 264 266 267 270 269 271 275 277 279 280 280 281 282 283 284 285 286 287 287
227 229 232 233 233 233 233 237 239 239 239 239 240 240 244 245 246 251 254 251 251 254 258 259 261 263 265 267 268 271 273 275 276 277 277 278 279 280 281 282 283 284 285 284
229 231 232 232 234 234 235 235 240 241 241 245 244 245 245 246 248 247 249 250 251 254 257 260 261 261 262 264 267 269 270 272 274 275 275 275 277 279 280 280 281 282 283 285
227 231 236 238 238 237 238 239 240 243 242 244 245 245 246 248 250 252 254 257 256 255 255 256 257 259 260 261 265 267 269 270 272 274 274 275 275 277 279 280 282 283 283 285
227 229 232 234 238 241 240 240 242 240 243 245 247 248 249 249 252 252 254 257 257 256 256 257 257 258 262 264 265 265 267 269 271 271 272 274 276 277 279 280 282 283 284 285
228 231 232 234 234 231 233 235 238 241 243 243 246 249 251 252 253 254 255 256 257 257 257 259 260 262 264 265 266 268 269 270 270 272 274 275 276 279 281 281 281 282 284 285
231 233 233 234 235 235 233 235 237 239 241 243 245 246 248 250 251 252 254 255 256 258 259 261 263 265 267 268 270 271 271 271 273 274 276 277 278 280 282 283 281 281 282 284
235 235 237 237 238 238 237 237 237 239 241 243 245 246 247 248 249 251 253 255 256 258 260 262 264 266 266 267 268 269 269 270 272 273 274 275 276 277 279 282 282 283 285 286
240 241 241 240 241 242 243 243 242 240 241 242 244 245 247 249 250 253 254 255 257 258 260 261 262 264 265 267 268 270 271 272 273 275 278 279 280 282 283 283 284 284 285 286
Height
10665 10680 10697 10709 10716 10726 10739 10751 10758 10768 10775 10786 10797 10798 10808 10813 10820 10824 10826 10831 10834 10837 10839 10838 10841 10843 10842 10842 10840 10840 10841 10840 10838 10837 10836 10833 10833 10832 10830 10829 10825 10822 10820 10816
10650 10674 10680 10685 10697 10710 10723 10736 10747 10755 10766 10776 10782 10788 10798 10808 10811 10815 10819 10824 10825 10828 10829 10830 10832 10834 10836 10836 10835 10833 10832 10831 10831 10830 10829 10826 10824 10824 10822 10820 10819 10816 10813 10810
10636 10652 10657 10672 10688 10699 10711 10720 10733 10742 10748 10759 10770 10777 10791 10801 10800 10807 10812 10812 10816 10816 10819 10822 10822 10824 10827 10828 10829 10828 10826 10824 10822 10821 10819 10816 10814 10814 10813 10811 10810 10809 10806 10802
10615 10629 10643 10659 10675 10687 10702 10708 10716 10728 10736 10748 10753 10770 10779 10788 10792 10800 10801 10804 10803 10807 10809 10810 10812 10815 10817 10818 10820 10819 10818 10818 10816 10814 10811 10808 10805 10804 10803 10801 10799 10798 10797 10794
10603 10612 10627 10645 10664 10674 10690 10690 10699 10709 10718 10730 10741 10753 10770 10777 10786 10790 10789 10790 10794 10797 10799 10798 10801 10806 10806 10808 10809 10810 10810 10807 10805 10803 10802 10801 10799 10797 10794 10790 10786 10784 10783 10781
10583 10593 10609 10629 10641 10659 10670 10677 10682 10691 10702 10712 10731 10743 10752 10766 10772 10772 10776 10780 10784 10785 10787 10790 10789 10792 10795 10796 10797 10797 10799 10799 10795 10791 10789 10787 10785 10785 10783 10780 10775 10772 10769 10766
10570 10580 10598 10612 10627 10643 10654 10660 10670 10677 10688 10713 10720 10731 10753 10751 10757 10759 10763 10765 10770 10772 10773 10777 10778 10777 10782 10783 10782 10783 10785 10788 10788 10783 10778 10775 10773 10769 10766 10763 10762 10759 10754 10750
10553 10565 10584 10601 10618 10633 10642 10651 10659 10670 10685 10699 10702 10721 10741 10735 10741 10741 10745 10750 10755 10758 10761 10762 10764 10766 10766 10767 10769 10769 10770 10771 10773 10771 10768 10766 10763 10760 10753 10750 10748 10744 10738 10735
10538 10549 10561 10578 10596 10610 10631 10636 10646 10651 10663 10674 10687 10707 10718 10718 10722 10726 10731 10735 10739 10742 10746 10751 10753 10753 10752 10752 10752 10753 10754 10755 10756 10755 10752 10752 10750 10748 10742 10738 10734 10728 10724 10719
10520 10529 10544 10561 10575 10591 10610 10615 10624 10635 10646 10663 10680 10693 10706 10709 10707 10712 10716 10717 10722 10727 10731 10737 10740 10740 10739 10739 10737 10738 10738 10738 10738 10738 10736 10735 10733 10729 10727 10724 10719 10714 10709 10704
10507 10519 10528 10542 10564 10583 10592 10604 10617 10626 10633 10648 10661 10680 10685 10689 10693 10696 10696 10701 10708 10713 10717 10720 10724 10726 10726 10725 10725 10725 10723 10722 10720 10719 10718 10717 10714 10711 10707 10703 10699 10695 10690 10685
10492 10500 10511 10531 10548 10561 10574 10586 10590 10599 10625 10631 10643 10660 10671 10676 10679 10679 10682 10685 10689 10694 10699 10704 10706 10708 10707 10708 10709 10708 10707 10704 10704 10702 10700 10699 10695 10690 10685 10683 10680 10675 10671 10665
10479 10487 10497 10509 10526 10546 10562 10573 10578 10596 10603 10620 10628 10657 10658 10659 10662 10665 10665 10668 10670 10675 10680 10683 10687 10688 10689 10689 10687 10688 10688 10686 10685 10684 10684 10680 10675 10672 10668 10663 10660 10655 10650 10645
10457 10470 10484 10504 10525 10523 10537 10550 10556 10570 10583 10606 10625 10632 10639 10643 10643 10644 10646 10650 10654 10657 10659 10662 10666 10668 10668 10668 10668 10668 10668 10669 10669 10666 10661 10658 10654 10651 10648 10644 10639 10633 10628 10622
10446 10463 10474 10487 10496 10504 10518 10524 10531 10545 10577 10582 10610 10607 10609 10613 10615 10621 10628 10633 10633 10635 10639 10641 10643 10645 10645 10647 10649 10651 10652 10650 10647 10644 10642 10639 10635 10631 10627 10622 10617 10611 10604 10599
10441 10457 10464 10473 10480 10490 10499 10504 10516 10548 10553 10577 10583 10591 10592 10594 10599 10605 10605 10607 10609 10613 10619 10622 10626 10627 10626 10628 10628 10630 10630 10629 10627 10625 10622 10617 10612 10609 10604 10599 10594 10588 10582 10575
10421 10436 10444 10458 10465 10471 10478 10509 10516 10531 10541 10556 10571 10578 10566 10571 10578 10581 10580 10584 10594 10598 10601 10604 10605 10607 10609 10611 10613 10611 10610 10608 10605 10602 10598 10594 10590 10585 10579 10574 10569 10563 10556 10550
10409 10419 10428 10438 10446 10451 10500 10487 10500 10510 10520 10532 10546 10552 10549 10553 10553 10559 10571 10578 10580 10583 10585 10588 10590 10590 10591 10591 10590 10590 10589 10586 10582 10578 10574 10570 10565 10560 10555 10550 10544 10537 10531 10524
10396 10402 10414 10421 10436 10458 10469 10477 10481 10487 10500 10506 10521 10524 10527 10529 10535 10549 10555 10559 10559 10563 10568 10570 10570 10570 10569 10569 10567 10566 10563 10560 10556 10554 10549 10545 10541 10536 10530 10524 10518 10511 10503 10496
10382 10388 10394 10409 10422 10443 10457 10460 10457 10466 10489 10492 10499 10503 10507 10508 10522 10533 10525 10539 10544 10545 10548 10549 10549 10549 10548 10545 10543 10541 10538 10535 10533 10529 10525 10521 10515 10509 10503 10495 10488 10481 10475 10469
10367 10374 10385 10400 10413 10431 10440 10443 10446 10451 10480 10463 10472 10480 10488 10496 10503 10508 10511 10516 10521 10523 10525 10525 10527 10527 10526 10523 10520 10518 10516 10512 10508 10504 10499 10493 10487 10480 10475 10470 10463 10455 10447 10440
10357 10364 10376 10387 10401 10415 10421 10426 10432 10436 10438 10444 10450 10460 10469 10477 10482 10488 10492 10493 10496 10498 10500 10501 10502 10501 10501 10499 10497 10494 10491 10487 10482 10477 10472 10467 10460 10455 10449 10443 10436 10428 10420 10412
10348 10357 10365 10374 10390 10394 10396 10400 10407 10414 10422 10429 10434 10440 10448 10455 10460 10463 10468 10470 10472 10473 10473 10475 10476 10477 10475 10474 10471 10467 10463 10460 10456 10451 10445 10439 10434 10427 10421 10414 10406 10398 10391 10383
10333 10342 10349 10357 10369 10375 10379 10384 10391 10396 10402 10409 10416 10420 10424 10428 10432 10438 10443 10447 10449 10449 10449 10448 10448 10448 10446 10444 10442 10439 10434 10429 10424 10419 10415 10411 10405 10399 10393 10386 10375 10366 10357 10351
10320 10327 10336 10343 10349 10353 10359 10363 10369 10376 10383 10390 10396 10401 10405 10410 10414 10416 10418 10421 10423 10425 10425 10425 10424 10422 10420 10418 10416 10412 10407 10401 10397 10392 10388 10381 10375 10368 10362 10353 10343 10335 10327 10320
10310 10314 10318 10324 10326 10330 10336 10342 10351 10358 10364 10370 10374 10378 10382 10387 10391 10394 10397 10398 10398 10399 10400 10399 10397 10396 10394 10390 10385 10380 10376 10372 10367 10363 10357 10350 10342 10337 10329 10322 10314 10302 10295 10288